This is the latest recevied weather packets stored in our database for station/object N1ORT. If no packets are shown the sender has not sent any weather packets the latest 10 day(s).
| Time | Temp. | Humidity | Pressure | Rain* | Wind** | Luminosity | Snow |
|---|---|---|---|---|---|---|---|
| 1777833143 | 10.56° C | 48% | 1004.2 hPa | 0 mm | - | 455 W/m² | - |
| 1777832841 | 10.56° C | 48% | 1004.3 hPa | 0 mm | - | 510 W/m² | - |
| 1777832540 | 10.56° C | 51% | 1004.5 hPa | 0 mm | - | 567 W/m² | - |
| 1777832236 | 10° C | 52% | 1004.6 hPa | 0 mm | - | 450 W/m² | - |
| 1777831933 | 9.44° C | 54% | 1004.3 hPa | 0 mm | - | 267 W/m² | - |
| 1777831629 | 9.44° C | 56% | 1004.6 hPa | 0 mm | - | 143 W/m² | - |
| 1777831328 | 9.44° C | 59% | 1004.5 hPa | 0 mm | - | 140 W/m² | - |
| 1777831024 | 10° C | 57% | 1004.3 hPa | 0 mm | - | 116 W/m² | - |
| 1777830722 | 10° C | 55% | 1004.3 hPa | 0 mm | - | 136 W/m² | - |
| 1777830418 | 10° C | 55% | 1004.2 hPa | 0 mm | - | 153 W/m² | - |
| 1777830116 | 10.56° C | 53% | 1004.1 hPa | 0 mm | - | 208 W/m² | - |
| 1777829811 | 10.56° C | 54% | 1004 hPa | 0 mm | - | 381 W/m² | - |
| 1777829507 | 10° C | 54% | 1004 hPa | 0 mm | - | 345 W/m² | - |
| 1777829204 | 10° C | 53% | 1003.8 hPa | 0 mm | - | 270 W/m² | - |
| 1777828901 | 10° C | 56% | 1004 hPa | 0 mm | - | 200 W/m² | - |
| 1777828597 | 10.56° C | 56% | 1004.1 hPa | 0 mm | - | 247 W/m² | - |
| 1777828295 | 10.56° C | 55% | 1004 hPa | 0 mm | - | 227 W/m² | - |
| 1777827992 | 10.56° C | 56% | 1004 hPa | 0 mm | - | 444 W/m² | - |
| 1777827689 | 10° C | 58% | 1004 hPa | 0 mm | - | 421 W/m² | - |
| 1777827386 | 10° C | 62% | 1004 hPa | 0 mm | - | 384 W/m² | - |
| 1777827082 | 9.44° C | 65% | 1004 hPa | 0 mm | - | 308 W/m² | - |
| 1777826779 | 9.44° C | 63% | 1004 hPa | 0 mm | - | 288 W/m² | - |
| 1777826476 | 9.44° C | 66% | 1004.4 hPa | 0 mm | - | 275 W/m² | - |
| 1777826173 | 8.89° C | 68% | 1004.4 hPa | 0 mm | - | 246 W/m² | - |
| 1777825870 | 8.89° C | 65% | 1004.3 hPa | 0 mm | - | 229 W/m² | - |
* Rain latest hour (hover to see other rain measurements)
** Current wind speed in m/s (hover to see current wind gust speed)